Regional Weather Roundup
Issued by NWS San Angelo, TX

Home | Current Version | Previous Version | Text Only | Print | Product List | Glossary On
Versions: 1 2 3 4 5 6 7 8 9 10 11 12 13 14 15 16 17 18 19 20 21 22 23 24 25 26 27 28 29 30 31 32 33 34 35 36 37 38 39 40 41 42 43 44 45 46 47 48 49 50
000
ASUS44 KSJT 252102
RWRSJT
WEST CENTRAL TEXAS REGIONAL WEATHER ROUNDUP
NATIONAL WEATHER SERVICE SAN ANGELO TX
400 PM CDT SUN SEP 25 2016

NOTE: "FAIR" INDICATES FEW OR NO CLOUDS BELOW 12,000 FEET WITH NO
SIGNIFICANT WEATHER AND/OR OBSTRUCTIONS TO VISIBILITY.

TXZ049-054-064>066-071>073-076>078-098-099-113-114-127-128-139-140-
154-155-168>170-252200
...LOCATIONS ACROSS WEST CENTRAL TEXAS...

CITY           SKY/WX    TMP DP  RH WIND       PRES   REMARKS
SAN ANGELO     LGT RAIN  69  66  90 NE7       30.06S
ABILENE        CLOUDY    69  67  93 N12       30.11F
DYESS AFB      CLOUDY    69  66  90 N13       30.10S
JUNCTION       LGT RAIN  68 N/A N/A N12       30.03F
SWEETWATER     NOT AVBL
BROWNWOOD      NOT AVBL
COLEMAN        CLOUDY    72  67  85 N9        30.08S
SONORA         CLOUDY    68  66  94 NE6       30.09S
OZONA          NOT AVBL
BRADY          NOT AVBL
$$

TEXAS PANHANDLE/OKLAHOMA PANHANDLE

CITY           SKY/WX    TMP DP  RH WIND       PRES   REMARKS
AMARILLO       SUNNY     75  41  29 NE23G29   30.28F
BORGER         SUNNY     75  40  28 NE13G26   30.26F
CANADIAN       CLOUDY    71  47  42 NE9G21    30.24S
DALHART        SUNNY     74  35  24 NE22      30.32F
DUMAS          CLEAR     73  35  25 NE15G28   30.29F
GUYMON         NOT AVBL
HEREFORD       NOT AVBL
PAMPA          NOT AVBL
PERRYTON       SUNNY     77  42  28 NE12G22   30.25S
$$

SOUTHERN PANHANDLE/SOUTH PLAINS/ROLLING PLAINS

CITY           SKY/WX    TMP DP  RH WIND       PRES   REMARKS
LUBBOCK        LGT RAIN  61  51  70 NE22      30.23F
SNYDER           N/A     60  59  96 N6        30.17S
CHILDRESS      CLOUDY    62  53  72 NE13      30.23R
SEMINOLE       NOT AVBL
$$

PERMIAN BASIN

CITY           SKY/WX    TMP DP  RH WIND       PRES   REMARKS
MIDLAND        CLOUDY    73  60  63 NE13      30.12R
ODESSA         CLOUDY    73  59  61 NE13      30.14S
WINK           CLOUDY    65  63  93 NE24G33   30.13R FOG
$$

FAR WEST/SOUTHWEST MOUNTAINS/TRANS PECOS

CITY           SKY/WX    TMP DP  RH WIND       PRES   REMARKS
ALPINE         CLOUDY    68  59  74 N15G22    30.21S
DRYDEN           N/A     75  66  73 NE16      30.02F
EL PASO        PTSUNNY   75  38  26 E18       30.14F
FORT STOCKTON  PTSUNNY   77  60  55 N17       30.09F
GUADALUPE PASS CLOUDY    66  48  52 NE23G30   30.25S
MARFA          CLOUDY   N/A N/A N/A N13       30.19S
PECOS          NOT AVBL
$$

DALLAS/FORT WORTH METROPLEX

CITY           SKY/WX    TMP DP  RH WIND       PRES   REMARKS
DFW AIRPORT    LGT RAIN  78  73  84 N8        30.02S
FTW MEACHAM    LGT RAIN  78  72  81 N8        30.03R
DAL-EXECUTIVE  RAIN      77  75  93 N3        30.01F FOG
GRAND PRAIRIE  NOT AVBL
ADDISON        PTSUNNY   77  75  94 NE6       30.03S
MESQUITE       TSTM      72  72 100 NE6       30.02F
LANCASTER      CLOUDY    76  73  88 NE7       30.02F
$$

NORTH CENTRAL TEXAS

CITY           SKY/WX    TMP DP  RH WIND       PRES   REMARKS
SHRMAN/DENISON NOT AVBL
GAINESVILLE    NOT AVBL
BRIDGEPORT     CLOUDY    74  72  91 N6        30.08S
DENTON         LGT RAIN  75  72  90 N10       30.03S
WAXAHACHIE     RAIN      75  75 100 NE6       30.03S
GRANBURY       NOT AVBL
$$

WESTERN NORTH TEXAS

CITY           SKY/WX    TMP DP  RH WIND       PRES   REMARKS
WICHITA FALLS  CLOUDY    73  66  78 N23       30.09R
VERNON         CLOUDY    63  57  82 N18G24    30.17R
BRECKENRIDGE   NOT AVBL
COMANCHE       DRIZZLE   73  73 100 N10       30.06S
$$

CENTRAL AND SOUTH CENTRAL TEXAS

CITY           SKY/WX    TMP DP  RH WIND       PRES   REMARKS
AUSTIN/BERGSTM TSTM      81  75  82 E5        29.96R
WACO           CLOUDY    78  73  84 NE9       29.99S
HILLSBORO      CLOUDY    76  73  90 NE7       30.01S
TEMPLE         CLOUDY    78  72  81 NE10      30.00R
KILLEEN-GRAY   CLOUDY    81  72  74 E7        29.98S
FORT HOOD      CLOUDY    80  71  74 NE7       29.96S
GEORGETOWN     MOSUNNY   82  72  69 N9        29.97R
LAGO VISTA     CLOUDY    84  72  66 NE8       29.98R
SAN MARCOS     TSTM      79  73  83 SW20G26   29.98R VSB 1
NEW BRAUNFELS  CLOUDY    78  73  84 CALM      29.94R
RANDOLPH AFB   CLOUDY    78  76  95 N7        29.95R
SAN ANTONIO    TSTM      73  69  87 NW16G25   29.96R
STINSON        CLOUDY    79  69  71 W14G21    29.92R THUNDER
PLEASANTON     NOT AVBL
LA GRANGE      NOT AVBL
GIDDINGS       NOT AVBL
$$

EAST TEXAS

CITY           SKY/WX    TMP DP  RH WIND       PRES   REMARKS
PARIS          PTSUNNY   86  70  58 W3        30.00S
CLARKSVILLE    NOT AVBL
TYLER          LGT RAIN  86  70  58 N8        29.97S
LONGVIEW       SUNNY     91  67  44 E9        29.95F
PALESTINE      CLOUDY    83  75  76 W14       29.99S
NACOGDOCHES    PTSUNNY   90  72  55 E7        29.93S
$$

TEXAS HILL COUNTRY AND EDWARDS PLATEAU

CITY           SKY/WX    TMP DP  RH WIND       PRES   REMARKS
LLANO          NOT AVBL
HORSESHOE BAY  MOCLDY    85  70  60 N6        29.98F
KERRVILLE      LGT RAIN  69  68  96 CALM      30.01F
FREDERICKSBRG  NOT AVBL
ROCKSPRINGS    NOT AVBL
HONDO          CLOUDY    78  69  73 N20G29    29.94F
UVALDE         MOCLDY    78  68  71 N20G25    29.95F
DEL RIO        CLOUDY    74  70  87 N6        29.96F
$$

SOUTHEAST TEXAS

CITY           SKY/WX    TMP DP  RH WIND       PRES   REMARKS
COLLEGE STN    CLOUDY    75  73  93 S5        29.99R
CALDWELL       NOT AVBL
CROCKETT       NOT AVBL
BRENHAM        TSTM      75  74  96 CALM      29.98S
HUNTSVILLE     CLOUDY    77  74  90 CALM      29.98R
CONROE         CLOUDY    82  75  79 E12       29.97R
HOUSTON BUSH   TSTM      74  72  93 NW6       29.98R
HOUSTON HOBBY  CLOUDY    80  74  81 W3        29.96R
PERLAND        CLOUDY    81  75  82 W3        29.98R
WHARTON        NOT AVBL
$$

THE UPPER TEXAS COAST

CITY           SKY/WX    TMP DP  RH WIND       PRES   REMARKS
ORANGE         PTCLDY    86  68  54 S8        29.97S
PORT ARTHUR    CLOUDY    83  74  74 S7        29.95S
GALVESTON      LGT RAIN  81  76  84 W5        29.96R
ANGLETON       CLOUDY    77  73  87 NW6       29.97S
BAY CITY       LGT RAIN  73  71  95 N3        29.96F
$$

TEXAS COASTAL BEND, RIO GRANDE PLAINS DEEP SOUTH TEXAS

CITY           SKY/WX    TMP DP  RH WIND       PRES   REMARKS
VICTORIA       MOSUNNY   85  76  74 S7        29.92S
BEEVILLE       MOCLDY    90  75  62 SE10G17   29.88F
ROCKPORT       PTSUNNY   86  72  62 SE10G21   29.89F
PORT ARANSAS   CLOUDY    83  74  73 SE12      29.89F
PORT LAVACA    HAZE      85  76  72 SE16G23   29.93S VSB 3/4
CORPUS CHRISTI CLOUDY    89  78  70 SE21      29.88F THUNDER
KINGSVILLE NAS PTSUNNY   93  75  55 SE20G28   29.85F
COTULLA        CLOUDY    85  69  58 N16       29.88F
LAREDO         MOSUNNY   98  67  36 SE13      29.82F
BROWNSVILLE    MOSUNNY   93  75  55 SE17      29.85F
PORT ISABEL    SUNNY     92  75  57 SE21      29.85F
HEBBRONVILLE   NOT AVBL
MCALLEN        SUNNY    100  67  33 SE22G30   29.81F
WESLACO        SUNNY     98  67  36 S14G23    29.81F
FALFURRIAS     PTCLDY    98  69  39 SE17      29.82F
EDINBURG       PTCLDY    99  63  30 SE13G23   29.81F
$$



USA.gov is the U.S. government's official web portal to all federal, state and local government web resources and services.